[ hide orbit diagram ]
For accurate long-term ephemerides, please instead use our Horizons system.This orbit viewer was implemented using two-body methods, and hence should not be used for determining accurate long-term trajectories (over several years or decades) or planetary encounter circumstances.
Orbital Elements at Epoch 2459000.5 (2020-May-31.0) TDB
Reference: JPL 11 (heliocentric ecliptic J2000)
Element | Value | Uncertainty (1-sigma) | Units |
e | .1262000573046511 | 5.3463e-08 | |
a | 2.643272085071274 | 1.8599e-08 | au |
q | 2.309690996463494 | 1.4443e-07 | au |
i | 8.334927423642533 | 6.0637e-06 | deg |
node | 354.4776188276138 | 3.5191e-05 | deg |
peri | 49.39097431613892 | 4.3521e-05 | deg |
M | 316.6806142540076 | 2.1949e-05 | deg |
tp | 2459189.382194645481 (2020-Dec-05.88219465) | 9.5076e-05 | TDB |
period | 1569.680384460755 4.30 | 1.6567e-05 4.536e-08 | d yr |
n | .229346052587434 | 2.4207e-09 | deg/d |
Q | 2.976853173679053 | 2.0946e-08 | au |
|
| | Orbit Determination Parameters
Additional Information
|
[ show covariance matrix ]
Physical Parameter Table
Parameter |
Symbol |
Value |
Units |
Sigma |
Reference |
Notes |
absolute magnitude |
H |
16.7 |
|
n/a |
MPO440578 |
|
|
351431 (2005 GR122) Discovered 2005-Apr-06 by Mt. Lemmon Survey at Mount Lemmon |
Reference: 20130127/Numbers.arc | Last Updated: 2013-01-31 |
|
|